This is the latest recevied weather packets stored in our database for station/object VA3XLC. If no packets are shown the sender has not sent any weather packets the latest 10 day(s).
| Time | Temp. | Humidity | Pressure | Rain* | Wind** | Luminosity | Snow |
|---|---|---|---|---|---|---|---|
| 1777944950 | 16.11° C | 67% | 968.2 hPa | - | - | 0 W/m² | - |
| 1777943748 | 16.67° C | 66% | 968.2 hPa | - | - | 0 W/m² | - |
| 1777942847 | 17.22° C | 64% | 968.1 hPa | - | - | 0 W/m² | - |
| 1777938020 | 20° C | 49% | 968.1 hPa | - | - | 41 W/m² | - |
| 1777934996 | 20.56° C | 44% | 968.7 hPa | - | - | 143 W/m² | - |
| 1777934695 | 20.56° C | 44% | 968.7 hPa | - | - | 133 W/m² | - |
| 1777933773 | 20.56° C | 42% | 968.9 hPa | - | - | 204 W/m² | - |
| 1777931049 | 20.56° C | 36% | 969 hPa | - | - | 361 W/m² | - |
| 1777930448 | 20.56° C | 36% | 969 hPa | - | - | 216 W/m² | - |
| 1777923176 | 20° C | 46% | 969.6 hPa | - | - | 733 W/m² | - |
| 1777919509 | 19.44° C | 50% | 970.2 hPa | - | - | 833 W/m² | - |
| 1777917085 | 18.33° C | 54% | 970.6 hPa | - | - | 816 W/m² | - |
| 1777915883 | 18.33° C | 54% | 970.8 hPa | - | - | 894 W/m² | - |
| 1777914682 | 18.33° C | 55% | 971 hPa | - | - | 896 W/m² | - |
| 1777912860 | 18.33° C | 54% | 971.2 hPa | - | - | 886 W/m² | - |
| 1777912260 | 18.33° C | 54% | 971.3 hPa | - | - | 887 W/m² | - |
| 1777907370 | 16.67° C | 57% | 972.1 hPa | - | - | 750 W/m² | - |
| 1777905247 | 15° C | 59% | 972.2 hPa | - | - | 689 W/m² | - |
| 1777904047 | 14.44° C | 61% | 972.3 hPa | - | - | 629 W/m² | - |
| 1777903746 | 14.44° C | 60% | 972.4 hPa | - | - | 626 W/m² | - |
| 1777903146 | 14.44° C | 61% | 972.5 hPa | - | - | 594 W/m² | - |
| 1777902224 | 13.33° C | 63% | 972.5 hPa | - | - | 552 W/m² | - |
| 1777901002 | 12.78° C | 65% | 972.8 hPa | - | - | 502 W/m² | - |
| 1777897036 | 10.56° C | 70% | 973.2 hPa | - | - | 143 W/m² | - |
| 1777894934 | 9.44° C | 72% | 973 hPa | - | - | 183 W/m² | - |
* Rain since midnight (hover to see other rain measurements)
** Current wind speed in m/s (hover to see current wind gust speed)